Погода в Рагулях

Россия / Ставропольский край     45°38′47″N   43°43′35″E
темп.,
°C
ветер,
м/с
пор.,
м/с
влажн.,
%
обл.,
%
осадки,
мм/ч
давл.,
гПа
погр.,
м
15 апреля, чт
чт1500:00+10з5889100 0.0 1017249
03:00+9зсз4893100 0.0 1017217
06:00+8з4887100 0.0 1017215
09:00+13сз686398 0.0 1018584
12:00+18сз78460 0.0 10161284
15:00+18сз674517 0.0 10161319
18:00+15сз475936 0.0 1017211
21:00+13зсз4462100 0.0 101854
16 апреля, пт
пт1600:00+12зсз336876 0.0 101726
03:00+10зсз337517 0.0 101824
06:00+10зюз227915 0.0 101918
09:00+16ссз115733 0.0 1019471
12:00+20всв22445 0.0 10181511
15:00+22в333723 0.0 10172211
18:00+19в3347100 0.0 101748
21:00+12сз71191100 0.8 1021373
17 апреля, сб
сб1700:00+12ссв2395100 4.8 101957
03:00+11сз1194100 5.1 101811
06:00+11зсз4795100 0.5 1020330
09:00+11зсз51092100 6.0 1022746
12:00+10сз2289100 1.8 1023233
15:00+11зюз2387100 3.3 1022337
18:00+12ююз2387100 0.3 1022101
21:00+11юз2387100 0.5 102241
18 апреля, вс
вс1800:00+10зсз338197 0.0 102249
03:00+8ссз2284100 0.0 102233
06:00+9в2284100 0.0 102136
09:00+12вюв457597 0.0 1020487
12:00+16юв3461100 0.1 10181119
15:00+13в2586100 1.5 1018223
18:00+12в4597100 7.6 1018171
21:00+12в3792100 7.8 1017240
19 апреля, пн
пн1900:00+12в229397 0.2 101834
03:00+11юв3693100 0.3 1016133
06:00+12ююв2388100 0.0 101673
09:00+15зюз2377100 0.0 1016486
12:00+17з5773100 0.0 1016696
15:00+17ссз4580100 0.3 1015562
18:00+14с2391100 0.1 101592
21:00+14св3592100 0.1 1013167